Weather History for Milton, FL

Change the Weather History Date:

Monday, October 8, 2012

  Actual Average (KNSE) Record (KNSE)
Temperature  
Mean Temperature 66 °F -  
Max Temperature 78 °F 78 °F 91 °F (2010)
Min Temperature 54 °F 60 °F 50 °F (2010)
Growing Degree Days 16 (Base 50)    
Moisture  
Dew Point 52 °F    
Average Humidity 69    
Maximum Humidity 83    
Minimum Humidity 47    
Precipitation  
Precipitation 0.00 in - - ()
Sea Level Pressure  
Sea Level Pressure 30.03 in    
Wind  
Wind Speed 9 mph (North)    
Max Wind Speed 13 mph    
Max Gust Speed -    
Visibility 10 miles    
Events      
Averages and records for this station are not official NWS values.
T = Trace of Precipitation, MM = Missing Value Source: NWS Daily Summary

Daily Weather History Graph

Daily Weather History Graph

Search for Another Location

Airport:

Trip Planner

Search our weather history database for the weather conditions in past years. The results will help you decide how hot, cold, wet, or windy it might be!

Date:

Astronomy

Oct. 08, 2012 Rise Set
Actual Time 6:46 AM CDT 6:24 PM CDT
Civil Twilight 6:22 AM CDT 6:48 PM CDT
Nautical Twilight 5:54 AM CDT 7:16 PM CDT
Astronomical Twilight 5:26 AM CDT 7:44 PM CDT
Moon No Moon Rise 1:48 PM CDT (10/8)
Length of Visible Light 12h 26m
Length of Day
11h 37m
Last Quarter, 46% of the Moon is Illuminated
Oct 8
Last Quarter
Oct 15
New
Oct 21
First Quarter
Oct 29
Full
Nov 6
Last Quarter

Hourly Weather History & Observations

Time (CDT) Temp. Dew Point Humidity Pressure Visibility Wind Dir Wind Speed Gust Speed Precip Events Conditions
12:56 AM 57.0 °F 51.1 °F 81% 30.02 in 10.0 mi North 11.5 mph - N/A   Clear
1:56 AM 55.9 °F 50.0 °F 80% 30.01 in 10.0 mi North 9.2 mph - N/A   Clear
2:56 AM 55.0 °F 50.0 °F 83% 30.01 in 10.0 mi North 6.9 mph - N/A   Clear
3:56 AM 54.0 °F 48.9 °F 83% 30.00 in 10.0 mi North 8.1 mph - N/A   Clear
4:56 AM 54.0 °F 48.9 °F 83% 30.01 in 10.0 mi NNE 6.9 mph - N/A   Scattered Clouds
5:56 AM 55.0 °F 48.9 °F 80% 30.01 in 10.0 mi NE 4.6 mph - N/A   Overcast
6:56 AM 54.0 °F 48.9 °F 83% 30.03 in 10.0 mi Calm Calm - N/A   Clear
7:56 AM 55.9 °F 50.0 °F 80% 30.05 in 10.0 mi NNW 10.4 mph - N/A   Mostly Cloudy
8:56 AM 60.1 °F 51.1 °F 72% 30.07 in 10.0 mi North 11.5 mph - N/A   Clear
9:56 AM 64.9 °F 52.0 °F 63% 30.08 in 10.0 mi North 9.2 mph - N/A   Partly Cloudy
10:56 AM 69.1 °F 52.0 °F 54% 30.07 in 10.0 mi NNW 8.1 mph - N/A   Clear
11:56 AM 73.0 °F 54.0 °F 51% 30.04 in 10.0 mi North 9.2 mph - N/A   Clear
12:56 PM 73.9 °F 54.0 °F 50% 30.03 in 10.0 mi North 12.7 mph - N/A   Clear
1:56 PM 75.9 °F 55.0 °F 48% 30.00 in 10.0 mi NNW 12.7 mph - N/A   Clear
2:56 PM 77.0 °F 55.0 °F 47% 29.99 in 10.0 mi North 12.7 mph - N/A   Clear
3:56 PM 77.0 °F 55.0 °F 47% 29.98 in 10.0 mi NNW 11.5 mph - N/A   Clear
4:56 PM 75.0 °F 55.0 °F 50% 29.99 in 10.0 mi NNW 11.5 mph - N/A   Clear
5:56 PM 70.0 °F 55.9 °F 61% 30.01 in 10.0 mi NNW 8.1 mph - N/A   Clear
6:56 PM 64.9 °F 55.0 °F 70% 30.02 in 10.0 mi NNW 8.1 mph - N/A   Clear
7:56 PM 62.1 °F 54.0 °F 75% 30.04 in 10.0 mi NNW 6.9 mph - N/A   Clear
8:56 PM 61.0 °F 54.0 °F 78% 30.06 in 10.0 mi NNW 9.2 mph - N/A   Clear
9:56 PM 61.0 °F 52.0 °F 72% 30.06 in 10.0 mi North 8.1 mph - N/A   Clear
10:56 PM 59.0 °F 51.1 °F 75% 30.06 in 10.0 mi North 6.9 mph - N/A   Clear
11:56 PM 57.9 °F 51.1 °F 78% 30.05 in 10.0 mi North 6.9 mph - N/A   Clear